Regional Weather Roundup
Issued by NWS

Home | Current Version | Previous Version | Graphics & Text | Print | Product List | Glossary On
Versions: 1 2 3 4 5 6 7 8 9 10 11 12 13 14 15 16 17 18 19 20 21 22 23 24 25 26 27 28 29 30 31 32 33 34 35 36 37 38 39 40 41 42 43 44 45 46 47 48 49 50
000
ASUS43 KIND 230209
RWRIN

WEATHER ROUNDUP FOR INDIANA
NATIONAL WEATHER SERVICE INDIANAPOLIS IN
900 PM EST SUN JAN 22 2017

NOTE: "FAIR" INDICATES FEW OR NO CLOUDS BELOW 12,000 FEET WITH NO
SIGNIFICANT WEATHER AND/OR OBSTRUCTIONS TO VISIBILITY.

* - STATION DOES NOT REPORT WEATHER SUCH AS PRECIPITATION OR FOG.

+ - STATION NOT QUALITY CONTROLLED BY THE NATIONAL WEATHER SERVICE.
    USE DATA WITH CAUTION...ESPECIALLY DEWPOINT AND RELATIVE
    HUMIDITY OBSERVATIONS.

INZ001>003-010>013-019-020-230300-
NORTHWEST INDIANA

CITY           SKY/WX    TMP DP  RH WIND       PRES   REMARKS
GARY /AIRPORT/ MOCLDY    39  39 100 N14       29.65R FOG
KNOX *+        CLOUDY    41  36  81 N10       29.62R VSB 1/2
LA PORTE +     FOG       40  40 100 N7        29.64R VSB 1/2
MICHIGAN CITY+ FOG       39  39 100 N7        29.66R VSB 1
MONTICELLO +   CLOUDY    43  42  95 N8        29.60R FOG
RENSSELAER +   CLOUDY    41  41 100 N12       29.62S FOG
VALPARAISO     CLOUDY    41  41 100 N9        29.64R FOG

$$

LMZ046-743>745-230300-
SOUTHERN LAKE MICHIGAN

STATION/POSITION TIME  TEMP    WIND        PRES    WAVE
                       AIR SEA DIR/SP/G            HT
                 (UTC) (F)     (DEG/KT/KT) (MB)    (FT)
BURNS HARBOR     0100   36      10/ 10/ 14 1004.4
MICHIGAN CITY    0140   37     350/ 11/ 11   N/A

$$

INZ004-005-014>016-021>024-230300-
NORTH CENTRAL INDIANA

CITY           SKY/WX    TMP DP  RH WIND       PRES   REMARKS
GOSHEN         FOG       43  41  93 NE7       29.62R VSB 1/2
LOGANSPORT +   FOG       45  45 100 N12       29.59S VSB 1
PERU/GRISSOM   CLOUDY    48  48 100 N9        29.57R
ROCHESTER +    FOG       45  45 100 N8        29.62R VSB 3/4
SOUTH BEND     FOG       40  40 100 NE8       29.64R VSB 1/2
WARSAW +       FOG       43  41  93 NE8       29.62R VSB 3/4

$$

INZ006>009-017-018-025>027-230300-
NORTHEAST INDIANA

CITY           SKY/WX    TMP DP  RH WIND       PRES   REMARKS
ANGOLA *+      CLOUDY    46  32  57 NE6       29.61R
AUBURN +       CLOUDY    48  45  87 NE12      29.61R
FORT WAYNE     CLOUDY    51  47  86 NE10      29.59R
HUNTINGTON +   CLOUDY    50  49  96 NE8       29.59R
KENDALLVILLE + CLOUDY    47  47 100 NE6       29.61R FOG

$$

INZ028-029-035-036-043>045-051>053-230300-
WEST CENTRAL INDIANA

CITY           SKY/WX    TMP DP  RH WIND       PRES   REMARKS
CRAWFORDSVL +  CLOUDY    45  45 100 N9        29.58R FOG
GREENCASTLE +  CLOUDY    50  46  87 N9        29.56S
LAFAYETTE      CLOUDY    44  43  96 N12       29.59R FOG
TERRE HAUTE    CLOUDY    51  47  86 N13       29.56R

$$

INZ030>032-037>040-046>048-054>057-064-065-230300-
CENTRAL INDIANA

CITY           SKY/WX    TMP DP  RH WIND       PRES   REMARKS
CP ATTERBURY + CLOUDY    55  50  82 N13G21    29.49F
COLUMBUS       CLOUDY    55  54  94 N14       29.48S
FISHERS *+     CLOUDY    50  50 100 N3        29.55R
FRANKFORT +    CLOUDY    50  48  93 NE12      29.59R FOG
GREENWOOD *+   CLOUDY    56  53  89 N12       29.52F
INDIANAPOLIS   CLOUDY    54  49  83 N14       29.53R
-EAGLE CREEK   CLOUDY    54  49  83 N13       29.54R
KOKOMO +       CLOUDY    49  47  93 N9        29.59R
MARION +       CLOUDY    50  46  87 NE12      29.58R FOG
MT COMFORT *+  CLOUDY    52  50  93 N10       29.53S
SHELBYVILLE    CLOUDY    56  51  84 N15       29.49F
ZIONSVILLE +   CLOUDY    49  47  92 N12       29.56S

$$

INZ033-034-041-042-049-050-058-059-230300-
EAST CENTRAL INDIANA

CITY           SKY/WX    TMP DP  RH WIND       PRES   REMARKS
MUNCIE         CLOUDY    54  50  86 NE12      29.54F

$$

INZ060-061-067>069-081>083-085>088-230300-
SOUTHWEST INDIANA

CITY           SKY/WX    TMP DP  RH WIND       PRES   REMARKS
EVANSVILLE     CLOUDY    58  50  75 N14       29.45S
HUNTINGBURG *+ CLOUDY    59  48  67 N12       29.43F
WASHINGTON +   CLOUDY    56  52  86 N15G22    29.48S

$$

INZ062-063-066-070>080-084-089>092-230300-
SOUTH CENTRAL AND SOUTHEAST INDIANA

CITY           SKY/WX    TMP DP  RH WIND       PRES   REMARKS
BLOOMINGTON    CLOUDY    56  50  80 N13       29.49S
MADISON *+     CLOUDY    57  46  67 N16G23    29.44F
NORTH VERNON + CLOUDY    59  50  72 NE12G17   29.46S
SEYMOUR +      CLOUDY    59  50  72 N13       29.45S

$$




USA.gov is the U.S. government's official web portal to all federal, state and local government web resources and services.